Regional Weather Roundup
Issued by NWS

Home | Current Version | Previous Version | Text Only | Print | Product List | Glossary Off
Versions: 1 2 3 4 5 6 7 8 9 10 11 12 13 14 15 16 17 18 19 20 21 22 23 24 25 26 27 28 29 30 31 32 33 34 35 36 37 38 39 40 41 42 43 44 45 46 47 48 49 50

000
ASUS43 KMPX 021601
RWRMN
WEATHER ROUNDUP FOR MINNESOTA
NATIONAL WEATHER SERVICE TWIN CITIES/CHANHASSEN MN
1100 AM CDT TUE JUN 02 2015


NOTE: "FAIR" INDICATES FEW OR NO CLOUDS BELOW 12,000 FEET WITH NO
SIGNIFICANT WEATHER AND/OR OBSTRUCTIONS TO VISIBILITY. N/A MEANS
CURRENT SKY AND/OR WEATHER CONDITIONS ARE NOT AVAILABLE.

MNZ060>063-068>070-021700-
   Twin Cities Metro

CITY           SKY/WX    TMP DP  RH WIND       PRES   REMARKS
TWIN CITIES    PTSUNNY   69  52  54 S18G25    30.04F
ST PAUL        MOSUNNY   69  55  60 S15G22    30.04F
CRYSTAL        MOSUNNY   70  52  52 S18G26    30.02F
BLAINE         PTSUNNY   70  54  56 S17G24    30.03
LAKEVILLE      MOSUNNY   68  54  60 S15G22    30.04S
EDEN PRAIRIE   MOSUNNY   70  53  54 S20G25    30.02F
SOUTH ST PAUL  MOSUNNY   69  52  56 S12G20    30.04F
LAKE ELMO      FAIR      68  54  60 S12G21    30.06F
$$
MNZ001>005-007-008-013>017-022>024-027-028-021700-
   Northwest Minnesota

CITY           SKY/WX    TMP DP  RH WIND       PRES   REMARKS
BEMIDJI        CLOUDY    59  54  85 S6        29.92S
HALLOCK        CLOUDY    64  57  77 S16       29.83R
ROSEAU         CLOUDY    66  57  72 S8        29.84F
WARROAD        CLOUDY    64  57  77 S6        29.86F
THIEF RVR FALL CLOUDY    61  55  82 S7        29.86R
CROOKSTON      CLOUDY    64  59  82 S13       29.84R
FOSSTON        CLOUDY    59  55  88 SE14      29.85F
DETROIT LAKES  CLOUDY    68  54  60 S20       29.91F
MOORHEAD       CLOUDY    64  55  72 S22       29.85F
PARK RAPIDS    CLOUDY    72  52  49 S22G28    29.94F
MAHNOMEN       FAIR      64  55  74 S14G21    29.87F
$$
MNZ006-009>011-018-025>026-021700-
   North Central Minnesota

CITY           SKY/WX    TMP DP  RH WIND       PRES   REMARKS
BAUDETTE       CLOUDY    62  52  69 S8        29.89F
FLAG ISLAND    PTSUNNY   61  52  72 S14       29.86S
INTL FALLS     LGT RAIN  58  47  66 S6        29.94S
WASKISH        CLOUDY    57  54  88 SE7       29.90F
BIG FORK       CLOUDY    63  50  63 SE5       29.96F
LONGVILLE      PTSUNNY   70  52  52 S12G20    29.97S
GRAND RAPIDS   PTSUNNY   68  48  49 S18       29.98F
CRANE LAKE     CLOUDY    57  43  58 S3        29.99S
COOK           CLOUDY    61  45  55 SE8       29.98F
WALKER         FAIR      67  51  56 S14       29.94F
$$
MNZ012-019>021-037-021700-
   Northeast Minnesota

CITY           SKY/WX    TMP DP  RH WIND       PRES   REMARKS
DULUTH         MOSUNNY   63  45  51 S10       30.03F
ELY            CLOUDY    64  43  45 S7G18     30.01S
HIBBING        PTSUNNY   66  45  46 S8        29.99F
EVELETH        PTSUNNY   64  43  45 S13       30.01S
DULUTH HARBOR  MOSUNNY   48  43  81 NE6       30.06S
TWO HARBORS    CLOUDY    61  46  59 CALM      30.03F
SILVER BAY     CLOUDY    61  41  48 S6        30.04F
GRAND MARAIS     N/A     47  37  68 E5        30.08F
G MARAIS ARPRT PTSUNNY   61  37  41 S8        30.07F
$$
MNZ029>031-032-039>041-046>048-054>057-064-021700-
   West Central Minnesota

CITY           SKY/WX    TMP DP  RH WIND       PRES   REMARKS
FERGUS FALLS   CLOUDY    66  54  63 S20       29.91F
WHEATON        CLOUDY    64  54  68 SE16      29.90F
MORRIS         CLOUDY    68  55  64 S21       29.93F
ALEXANDRIA     CLOUDY    68  53  58 S18       29.99R
ELBOW LAKE     CLOUDY    66  55  66 S20G26    29.92F
WADENA         CLOUDY    68  54  60 S15G21    29.95F
GLENWOOD       PTSUNNY   68  55  64 S15       29.99S
APPLETON       CLOUDY    72  55  56 S7        29.94F
BENSON         CLOUDY    66  54  63 SW13      29.97S
ORTONVILLE     LGT RAIN  66  55  68 SE10      29.92F
MADISON        CLOUDY    68  54  60 S14       29.94F
WILLMAR        FAIR      72  55  56 S7G18     30.00S
$$
MNZ033>034-036-042>043-049>051-058-059-021700-
   Central Minnesota

CITY           SKY/WX    TMP DP  RH WIND       PRES   REMARKS
ST CLOUD       MOSUNNY   69  54  58 S17G25    30.00R
SAUK CENTRE    FAIR      70  53  56 S16G22    29.99R
PAYNESVILLE    PTSUNNY   66  53  62 SE15G22   30.00R
AITKIN         PTSUNNY   68  52  56 S16       29.98S
PINE RIVER     PTSUNNY   68  54  60 S12G20    30.01S
BRAINERD       PTSUNNY   69  53  56 S12G20    29.99S
STAPLES        PTSUNNY   68  52  56 S14       29.98R
LONG PRAIRIE   FAIR      70  54  56 S14G25    30.00R
LITTLE FALLS   PTSUNNY   70  50  49 S13G18    29.99S
LITCHFIELD     PTSUNNY   70  55  60 S7        30.01R
BUFFALO        MOSUNNY   68  51  55 SE13G18   30.02S
MAPLE LAKE     MOSUNNY   70  55  59 S8G16     30.02S
$$
MNZ037-044-045-052-053-021700-
   East Central Minnesota

CITY           SKY/WX    TMP DP  RH WIND       PRES   REMARKS
PRINCETON      SUNNY     72  54  53 SE15      30.01S
MORA           MOSUNNY   64  50  59 S13       30.04S
CAMBRIDGE      MOSUNNY   70  54  56 SE12      30.01S
RUSH CITY      SUNNY     68  53  58 S10G17    30.04S
MOOSE LAKE     SUNNY     68  48  49 S10G16    30.00S
HINCKLEY       FAIR      68  52  56 S15       30.03F
CLOQUET        SUNNY     68  46  45 SE9G17    30.01F
MCGREGOR       MOSUNNY   70  50  49 S10       30.00S
$$
MNZ071>073-080-081-089-090-097-098-021700-
   Southwest Minnesota

CITY           SKY/WX    TMP DP  RH WIND       PRES   REMARKS
MONTEVIDEO     CLOUDY    70  55  60 SW13G22   29.97S
GRANITE FALLS  CLOUDY    71  54  55 SE18      29.98S
CANBY          CLOUDY    69  55  61 S13G18    29.95S
MARSHALL       CLOUDY    72  52  49 SW17G26   29.95S
REDWOOD FALLS  PTSUNNY   70  54  56 S21       29.98R
OLIVIA         CLOUDY    68  54  60 S14       29.99R
PIPESTONE      PTSUNNY   68  55  64 S18       29.96S
WINDOM         MOSUNNY   68  54  60 S17G23    29.99S
WORTHINGTON    SUNNY     66  52  59 S18       29.99R
JACKSON        SUNNY     68  54  60 S18       30.01F
TRACY          PTSUNNY   71  54  55 S17G23    29.97S
SLAYTON        MOSUNNY   69  51  52 S20G25    29.99R
$$
MNZ065>067-074>077-082>085-091>093-021700-
   South Central Minnesota

CITY           SKY/WX    TMP DP  RH WIND       PRES   REMARKS
MANKATO        PTSUNNY   66  52  59 S17G24    30.03S
NEW ULM        PTSUNNY   66  54  63 S16G22    30.00S
ST JAMES       PTSUNNY   70  55  60 SE21G28   30.01S
FAIRMONT         N/A    N/A N/A N/A MISG      30.01F
GLENCOE        PTSUNNY   71  56  59 S10G20    30.01R
FARIBAULT      MOSUNNY   68  54  60 SE15G24   30.05S
OWATONNA       MOSUNNY   68  54  60 S15G21    30.05F
WASECA         PTSUNNY   68  52  56 S20G26    30.05F
ALBERT LEA     PTSUNNY   66  54  63 S20G25    30.05S
$$
MNZ078>079-086>088-094>096-021700-
   Southeast Minnesota

CITY           SKY/WX    TMP DP  RH WIND       PRES   REMARKS
ROCHESTER      MOSUNNY   66  54  65 S17G24    30.09F
RED WING       SUNNY     70  52  52 SE14      30.06F
STANTON        MOSUNNY   69  53  55 S17       30.04S
DODGE CENTER   MOSUNNY   66  54  63 S21       30.07F
WINONA         SUNNY     68  54  60 E9        30.11F
AUSTIN         MOSUNNY   64  54  68 S15       30.07F
PRESTON        MOSUNNY   64  53  66 S14       30.10F
$$
ABBREVIATIONS USED IN REMARKS
   TC - TEMPERATURES IN CELSIUS
  WCI - WIND CHILL INDEX
   HX - HEAT INDEX
  VSB - VISIBILITY
$$



USA.gov is the U.S. government's official web portal to all federal, state and local government web resources and services.